Weather History for KPNM - August, 2014

Change the Weather History Date:

Saturday, August 9, 2014

  Actual Average Record
Temperature  
Mean Temperature 71 °F -  
Max Temperature 82 °F 77 °F 93 °F (2007)
Min Temperature 60 °F 54 °F 48 °F (2013)
Cooling Degree Days 6    
Growing Degree Days 21 (Base 50)    
Moisture  
Dew Point 59 °F    
Average Humidity 67    
Maximum Humidity 88    
Minimum Humidity 39    
Precipitation  
Precipitation 0.00 in - - ()
Sea Level Pressure  
Sea Level Pressure 30.10 in    
Wind  
Wind Speed 3 mph (ESE)    
Max Wind Speed 13 mph    
Max Gust Speed 16 mph    
Visibility 10 miles    
Events      
Averages and records for this station are not official NWS values.
T = Trace of Precipitation, MM = Missing Value Source: NWS Daily Summary

Daily Weather History Graph

Daily Weather History Graph

Search for Another Location

Airport or City:

Trip Planner

Search our weather history database for the weather conditions in past years. The results will help you decide how hot, cold, wet, or windy it might be!

Date:

Astronomy

Aug. 09, 2014 Rise Set
Actual Time 6:07 AM CDT 8:31 PM CDT
Civil Twilight 5:34 AM CDT 9:04 PM CDT
Nautical Twilight 4:53 AM CDT 9:45 PM CDT
Astronomical Twilight 4:06 AM CDT 10:31 PM CDT
Moon 7:31 PM CDT (8/9) 4:48 AM CDT (8/9)
Length of Visible Light 15h 29m
Length of Day
14h 23m
Waxing Gibbous, 98% of the Moon is Illuminated
Aug 9
Waxing Gibbous
Aug 10
Full
Aug 17
Last Quarter
Aug 25
New
Sep 2
First Quarter

Hourly Weather History & Observations

Time (CDT) Temp. Heat Index Dew Point Humidity Pressure Visibility Wind Dir Wind Speed Gust Speed Precip Events Conditions
12:14 AM 64.4 °F - 57.2 °F 77% 30.09 in 10.0 mi Calm Calm - N/A   Clear
12:34 AM 64.4 °F - 57.2 °F 77% 30.10 in 10.0 mi Calm Calm - N/A   Scattered Clouds
12:54 AM 64.4 °F - 57.2 °F 77% 30.09 in 10.0 mi Calm Calm - N/A   Unknown
1:14 AM 66.2 °F - 60.8 °F 83% 30.09 in 10.0 mi Calm Calm - N/A   Unknown
1:34 AM 68.0 °F - 60.8 °F 78% 30.08 in 10.0 mi East 3.5 mph - N/A   Unknown
1:54 AM 68.0 °F - 60.8 °F 78% 30.08 in 10.0 mi East 3.5 mph - N/A   Overcast
2:14 AM 68.0 °F - 60.8 °F 78% 30.08 in 10.0 mi Calm Calm - N/A   Mostly Cloudy
2:34 AM 66.2 °F - 60.8 °F 83% 30.09 in 10.0 mi Calm Calm - N/A   Scattered Clouds
2:54 AM 66.2 °F - 59.0 °F 78% 30.09 in 10.0 mi Calm Calm - N/A   Scattered Clouds
3:14 AM 66.2 °F - 59.0 °F 78% 30.09 in 10.0 mi Calm Calm - N/A   Unknown
3:34 AM 64.4 °F - 59.0 °F 83% 30.10 in 10.0 mi Calm Calm - N/A   Unknown
3:54 AM 64.4 °F - 59.0 °F 83% 30.10 in 10.0 mi Calm Calm - N/A   Unknown
4:14 AM 62.6 °F - 59.0 °F 88% 30.10 in 10.0 mi Calm Calm - N/A   Unknown
4:35 AM 62.6 °F - 59.0 °F 88% 30.10 in 10.0 mi Calm Calm - N/A   Unknown
4:54 AM 62.6 °F - 59.0 °F 88% 30.10 in 10.0 mi Calm Calm - N/A   Unknown
5:14 AM 62.6 °F - 57.2 °F 82% 30.10 in 10.0 mi Calm Calm - N/A   Unknown
5:34 AM 60.8 °F - 57.2 °F 88% 30.11 in 10.0 mi Calm Calm - N/A   Unknown
5:54 AM 64.4 °F - 60.8 °F 88% 30.10 in 10.0 mi ENE 3.5 mph - N/A   Unknown
6:14 AM 64.4 °F - 60.8 °F 88% 30.11 in 10.0 mi Calm Calm - N/A   Unknown
6:34 AM 64.4 °F - 60.8 °F 88% 30.10 in 10.0 mi East 3.5 mph - N/A   Unknown
6:54 AM 66.2 °F - 60.8 °F 83% 30.11 in 10.0 mi East 3.5 mph - N/A   Overcast
7:14 AM 66.2 °F - 60.8 °F 83% 30.11 in 10.0 mi East 4.6 mph - N/A   Overcast
7:35 AM 66.2 °F - 60.8 °F 83% 30.11 in 10.0 mi East 3.5 mph - N/A   Overcast
7:54 AM 66.2 °F - 60.8 °F 83% 30.12 in 10.0 mi East 3.5 mph - N/A   Overcast
8:14 AM 66.2 °F - 60.8 °F 83% 30.12 in 10.0 mi East 3.5 mph - N/A   Overcast
8:35 AM 66.2 °F - 60.8 °F 83% 30.13 in 10.0 mi Calm Calm - N/A   Mostly Cloudy
8:54 AM 68.0 °F - 60.8 °F 78% 30.13 in 10.0 mi Calm Calm - N/A   Mostly Cloudy
9:14 AM 69.8 °F - 60.8 °F 73% 30.13 in 10.0 mi Calm Calm - N/A   Scattered Clouds
9:34 AM 69.8 °F - 62.6 °F 78% 30.13 in 10.0 mi ESE 3.5 mph - N/A   Scattered Clouds
9:54 AM 71.6 °F - 62.6 °F 73% 30.13 in 10.0 mi East 4.6 mph - N/A   Clear
10:14 AM 73.4 °F - 62.6 °F 69% 30.13 in 10.0 mi Calm Calm - N/A   Scattered Clouds
10:34 AM 75.2 °F - 62.6 °F 65% 30.13 in 10.0 mi SE 4.6 mph - N/A   Scattered Clouds
10:54 AM 75.2 °F - 62.6 °F 65% 30.13 in 10.0 mi ESE 3.5 mph - N/A   Scattered Clouds
11:14 AM 77.0 °F - 60.8 °F 57% 30.12 in 10.0 mi SE 4.6 mph - N/A   Scattered Clouds
11:34 AM 78.8 °F - 57.2 °F 47% 30.12 in 10.0 mi SSE 6.9 mph - N/A   Clear
12:14 PM 78.8 °F - 60.8 °F 54% 30.12 in 10.0 mi ESE 3.5 mph - N/A   Scattered Clouds
12:34 PM 78.8 °F - 57.2 °F 47% 30.12 in 10.0 mi East 8.1 mph - N/A   Scattered Clouds
12:54 PM 80.6 °F 81.5 °F 60.8 °F 51% 30.11 in 10.0 mi ENE 5.8 mph - N/A   Scattered Clouds
1:14 PM 80.6 °F 81.5 °F 60.8 °F 51% 30.11 in 10.0 mi ESE 5.8 mph - N/A   Scattered Clouds
1:34 PM 80.6 °F 81.1 °F 59.0 °F 48% 30.11 in 10.0 mi SSE 5.8 mph - N/A   Scattered Clouds
1:54 PM 82.4 °F 81.7 °F 55.4 °F 39% 30.11 in 10.0 mi SE 12.7 mph - N/A   Clear
2:14 PM 82.4 °F 82.0 °F 57.2 °F 42% 30.11 in 10.0 mi SE 10.4 mph - N/A   Clear
2:34 PM 82.4 °F 81.7 °F 55.4 °F 39% 30.11 in 10.0 mi SE 9.2 mph - N/A   Clear
2:54 PM 82.4 °F 82.0 °F 57.2 °F 42% 30.10 in 10.0 mi ESE 8.1 mph - N/A   Clear
3:14 PM 80.6 °F 81.1 °F 59.0 °F 48% 30.09 in 10.0 mi East 6.9 mph - N/A   Clear
3:54 PM 80.6 °F 80.5 °F 55.4 °F 42% 30.09 in 10.0 mi SE 10.4 mph - N/A   Scattered Clouds
4:14 PM 82.4 °F 82.0 °F 57.2 °F 42% 30.09 in 10.0 mi ESE 9.2 mph - N/A   Clear
4:54 PM 82.4 °F 82.0 °F 57.2 °F 42% 30.09 in 10.0 mi East 9.2 mph - N/A   Clear
5:14 PM 82.4 °F 82.0 °F 57.2 °F 42% 30.08 in 10.0 mi ESE 9.2 mph - N/A   Clear
5:34 PM 82.4 °F 81.7 °F 55.4 °F 39% 30.08 in 10.0 mi ESE 8.1 mph 16.1 mph N/A   Scattered Clouds
5:54 PM 82.4 °F 82.0 °F 57.2 °F 42% 30.08 in 10.0 mi ESE 8.1 mph - N/A   Clear
6:14 PM 80.6 °F 80.8 °F 57.2 °F 45% 30.08 in 10.0 mi ESE 6.9 mph - N/A   Clear
6:34 PM 78.8 °F - 57.2 °F 47% 30.08 in 10.0 mi SE 11.5 mph - N/A   Scattered Clouds
6:54 PM 78.8 °F - 55.4 °F 44% 30.07 in 10.0 mi SE 9.2 mph - N/A   Scattered Clouds
7:14 PM 75.2 °F - 57.2 °F 53% 30.07 in 10.0 mi SE 8.1 mph - N/A   Scattered Clouds
7:34 PM 75.2 °F - 57.2 °F 53% 30.07 in 10.0 mi SE 5.8 mph - N/A   Scattered Clouds
7:54 PM 75.2 °F - 59.0 °F 57% 30.07 in 10.0 mi SE 4.6 mph - N/A   Scattered Clouds
8:14 PM 73.4 °F - 60.8 °F 65% 30.08 in 10.0 mi SSE 3.5 mph - N/A   Scattered Clouds
8:54 PM 71.6 °F - 60.8 °F 69% 30.07 in 10.0 mi Calm Calm - N/A   Clear
9:14 PM 71.6 °F - 60.8 °F 69% 30.08 in 7.0 mi Calm Calm - N/A   Clear
9:34 PM 71.6 °F - 60.8 °F 69% 30.08 in 10.0 mi Calm Calm - N/A   Clear
10:34 PM 69.8 °F - 60.8 °F 73% 30.07 in 10.0 mi East 3.5 mph - N/A   Clear
10:54 PM 69.8 °F - 60.8 °F 73% 30.07 in 10.0 mi Calm Calm - N/A   Clear
11:14 PM 68.0 °F - 60.8 °F 78% 30.07 in 10.0 mi Calm Calm - N/A   Clear
11:34 PM 68.0 °F - 60.8 °F 78% 30.07 in 10.0 mi Calm Calm - N/A   Clear
11:54 PM 66.2 °F - 60.8 °F 83% 30.07 in 10.0 mi Calm Calm - N/A   Clear